TimeAKDT,TemperatureF,Dew PointF,Humidity,Sea Level PressureIn,VisibilityMPH,Wind Direction,Wind SpeedMPH,Gust SpeedMPH,PrecipitationIn,Events,Conditions,WindDirDegrees,DateUTC
12:53 AM,52.0,46.9,83,29.68,10.0,South,13.8,24.2,0.09,,Overcast,170,2012-09-28 08:53:00
1:53 AM,50.0,45.0,83,29.69,10.0,ESE,6.9,-,0.08,,Overcast,110,2012-09-28 09:53:00
2:17 AM,48.2,46.4,93,29.69,9.0,ESE,11.5,17.3,0.03,Rain,Light Rain,110,2012-09-28 10:17:00
2:53 AM,48.9,46.0,90,29.68,3.0,Calm,Calm,-,0.11,Rain,Rain,0,2012-09-28 10:53:00
3:07 AM,48.2,46.4,93,29.69,10.0,ESE,9.2,-,0.01,Rain-Thunderstorm,Light Thunderstorms and Rain,110,2012-09-28 11:07:00
3:17 AM,48.2,46.4,93,29.69,10.0,ESE,9.2,-,0.01,,Overcast,120,2012-09-28 11:17:00
3:53 AM,50.0,46.0,86,29.70,7.0,SSE,11.5,17.3,0.02,Rain,Light Rain,150,2012-09-28 11:53:00
4:29 AM,51.8,44.6,76,29.70,10.0,ESE,10.4,-,0.00,Rain,Light Rain,110,2012-09-28 12:29:00
4:53 AM,51.1,45.0,80,29.69,9.0,SE,9.2,-,0.01,Rain,Light Rain,130,2012-09-28 12:53:00
5:53 AM,48.9,46.9,93,29.72,2.5,South,9.2,-,0.17,Rain,Heavy Rain,170,2012-09-28 13:53:00
6:00 AM,48.2,46.4,93,29.71,2.0,South,8.1,16.1,0.07,Rain,Heavy Rain,180,2012-09-28 14:00:00
6:07 AM,48.2,46.4,93,29.71,3.0,Variable,5.8,16.1,0.09,Rain,Rain,0,2012-09-28 14:07:00
6:30 AM,48.2,46.4,93,29.72,2.5,ESE,6.9,-,0.19,Rain,Heavy Rain,110,2012-09-28 14:30:00
6:33 AM,48.2,46.4,93,29.73,3.0,ESE,8.1,-,0.22,Rain,Heavy Rain,110,2012-09-28 14:33:00
6:37 AM,48.2,46.4,93,29.72,2.5,East,9.2,-,0.25,Rain,Heavy Rain,100,2012-09-28 14:37:00
6:46 AM,46.4,46.4,100,29.72,5.0,East,10.4,-,0.27,Rain,Light Rain,90,2012-09-28 14:46:00
6:53 AM,48.0,46.0,93,29.73,4.0,East,11.5,-,0.29,Rain,Light Rain,80,2012-09-28 14:53:00
7:53 AM,48.9,46.0,90,29.74,10.0,ESE,6.9,-,0.01,Rain,Light Rain,120,2012-09-28 15:53:00
8:53 AM,50.0,46.9,89,29.75,6.0,ESE,5.8,-,0.07,Rain,Light Rain,120,2012-09-28 16:53:00
9:23 AM,48.2,46.4,93,29.76,10.0,ESE,6.9,-,0.00,,Overcast,110,2012-09-28 17:23:00
9:53 AM,51.1,46.0,83,29.77,10.0,ESE,9.2,-,0.00,,Overcast,110,2012-09-28 17:53:00
10:46 AM,51.8,46.4,82,29.78,10.0,ESE,8.1,-,N/A,,Overcast,110,2012-09-28 18:46:00
10:53 AM,51.1,46.9,86,29.78,10.0,ESE,9.2,-,N/A,,Overcast,110,2012-09-28 18:53:00
11:03 AM,51.8,46.4,82,29.78,10.0,SE,8.1,-,N/A,,Overcast,130,2012-09-28 19:03:00
11:53 AM,53.1,46.9,80,29.79,10.0,ESE,8.1,-,N/A,,Mostly Cloudy,120,2012-09-28 19:53:00
12:00 PM,53.6,46.4,77,29.79,10.0,SSE,5.8,-,N/A,,Mostly Cloudy,150,2012-09-28 20:00:00
12:15 PM,51.8,46.4,82,29.80,4.0,South,11.5,17.3,0.02,Rain,Rain,190,2012-09-28 20:15:00
12:21 PM,51.8,46.4,82,29.80,2.5,SSE,11.5,19.6,0.03,Rain,Rain,150,2012-09-28 20:21:00
12:28 PM,51.8,48.2,88,29.80,5.0,SSE,9.2,-,0.03,Rain,Light Rain,160,2012-09-28 20:28:00
12:53 PM,51.1,46.0,83,29.80,10.0,South,8.1,-,0.03,Rain,Light Rain,170,2012-09-28 20:53:00
1:53 PM,51.1,46.9,86,29.81,10.0,SE,9.2,-,0.02,,Overcast,130,2012-09-28 21:53:00
2:16 PM,51.8,46.4,82,29.81,9.0,South,12.7,-,0.00,Rain,Light Rain,170,2012-09-28 22:16:00
2:30 PM,51.8,48.2,88,29.81,7.0,SSE,10.4,-,0.03,Rain,Light Rain,160,2012-09-28 22:30:00
2:53 PM,51.1,48.0,89,29.82,7.0,South,8.1,-,0.03,Rain,Light Rain,170,2012-09-28 22:53:00
3:53 PM,50.0,46.9,89,29.83,10.0,East,9.2,-,0.03,,Overcast,100,2012-09-28 23:53:00
4:53 PM,50.0,45.0,83,29.83,10.0,ESE,11.5,-,0.00,,Overcast,110,2012-09-29 00:53:00
5:53 PM,50.0,45.0,83,29.83,9.0,ESE,8.1,-,0.00,Rain,Light Rain,110,2012-09-29 01:53:00
6:30 PM,48.2,46.4,93,29.82,10.0,East,4.6,-,0.06,,Overcast,90,2012-09-29 02:30:00
6:45 PM,48.2,44.6,87,29.82,10.0,East,8.1,-,0.06,,Overcast,100,2012-09-29 02:45:00
6:53 PM,50.0,46.0,86,29.83,10.0,ESE,8.1,-,0.06,,Overcast,120,2012-09-29 02:53:00
7:53 PM,48.0,45.0,89,29.84,5.0,ESE,5.8,-,0.12,Rain,Light Rain,120,2012-09-29 03:53:00
8:53 PM,48.0,45.0,89,29.84,10.0,East,8.1,-,0.00,,Mostly Cloudy,90,2012-09-29 04:53:00
9:53 PM,48.0,45.0,89,29.85,6.0,East,8.1,-,0.06,Rain,Rain,90,2012-09-29 05:53:00
10:46 PM,46.4,44.6,93,29.85,10.0,East,5.8,-,0.05,Rain,Light Rain,90,2012-09-29 06:46:00
10:53 PM,46.9,45.0,93,29.86,10.0,ESE,8.1,-,0.05,,Overcast,110,2012-09-29 06:53:00
11:07 PM,46.4,44.6,93,29.85,10.0,East,6.9,-,0.00,Rain,Light Rain,90,2012-09-29 07:07:00
11:53 PM,48.0,45.0,89,29.85,9.0,East,11.5,-,0.01,Rain,Light Rain,90,2012-09-29 07:53:00